Weather History for KMDQ - March, 2013

Change the Weather History Date:

Sunday, March 31, 2013

  Actual Average (KHSV) Record (KHSV)
Temperature  
Mean Temperature 58 °F 58 °F  
Max Temperature 60 °F 69 °F 88 °F (1963)
Min Temperature 55 °F 46 °F 26 °F (1942)
Degree Days  
Heating Degree Days 8 8  
Month to date heating degree days 369  
Since 1 July heating degree days 2820  
Cooling Degree Days 0 1  
Month to date cooling degree days 13  
Year to date cooling degree days 14  
Growing Degree Days 8 (Base 50)    
Moisture  
Dew Point 52 °F    
Average Humidity 86    
Maximum Humidity 94    
Minimum Humidity 77    
Precipitation  
Precipitation 0.25 in 0.17 in 2.22 in (1922)
Month to date precipitation 5.21  
Year to date precipitation 14.94  
Snow  
Snow 0.00 in - - ()
Month to date snowfall  
Since 1 July snowfall  
Snow Depth -    
Sea Level Pressure  
Sea Level Pressure 29.93 in    
Wind  
Wind Speed 7 mph (SW)    
Max Wind Speed 12 mph    
Max Gust Speed 17 mph    
Visibility 7 miles    
Events Rain    
T = Trace of Precipitation, MM = Missing Value Source: NWS Daily Summary

Daily Weather History Graph

Daily Weather History Graph

Search for Another Location

Airport or City:

Trip Planner

Search our weather history database for the weather conditions in past years. The results will help you decide how hot, cold, wet, or windy it might be!

Date:

Astronomy

Mar. 31, 2013 Rise Set
Actual Time 6:34 AM CDT 7:06 PM CDT
Civil Twilight 6:08 AM CDT 7:32 PM CDT
Nautical Twilight 5:38 AM CDT 8:02 PM CDT
Astronomical Twilight 5:08 AM CDT 8:32 PM CDT
Moon No Moon Rise 9:31 AM CDT (3/31)
Length of Visible Light 13h 23m
Length of Day
12h 32m
Waning Gibbous, 77% of the Moon is Illuminated
Mar 31
Waning Gibbous
Apr 2
Last Quarter
Apr 10
New
Apr 18
First Quarter
Apr 25
Full

Hourly Weather History & Observations

Time (CDT) Temp. Dew Point Humidity Pressure Visibility Wind Dir Wind Speed Gust Speed Precip Events Conditions
12:15 AM 55.4 °F 51.8 °F 88% 29.96 in 10.0 mi SSW 6.9 mph - N/A   Overcast
12:35 AM 55.4 °F 51.8 °F 88% 29.96 in 7.0 mi South 6.9 mph - N/A   Overcast
12:55 AM 55.4 °F 51.8 °F 88% 29.96 in 7.0 mi SW 8.1 mph - N/A   Heavy Drizzle
1:15 AM 55.4 °F 51.8 °F 88% 29.96 in 5.0 mi SW 9.2 mph 17.3 mph N/A   Drizzle
1:35 AM 55.4 °F 51.8 °F 88% 29.96 in 5.0 mi SW 10.4 mph - N/A   Drizzle
1:55 AM 55.4 °F 51.8 °F 88% 29.96 in 4.0 mi SW 11.5 mph 16.1 mph N/A   Drizzle
2:15 AM 55.4 °F 51.8 °F 88% 29.96 in 5.0 mi SW 9.2 mph - N/A   Light Drizzle
2:35 AM 55.4 °F 51.8 °F 88% 29.95 in 7.0 mi SW 8.1 mph - N/A   Overcast
2:55 AM 55.4 °F 51.8 °F 88% 29.94 in 10.0 mi SW 6.9 mph - N/A   Overcast
3:15 AM 55.4 °F 51.8 °F 88% 29.94 in 10.0 mi WSW 6.9 mph - N/A   Overcast
10:55 AM 55.4 °F 51.8 °F 88% 29.95 in 4.0 mi South 4.6 mph - 0.03 in Rain Rain
11:15 AM 55.4 °F 51.8 °F 88% 29.94 in 5.0 mi Calm Calm - N/A Rain Light Rain
11:35 AM 55.4 °F 53.6 °F 94% 29.94 in 4.0 mi South 5.8 mph - 0.02 in Rain Rain
12:35 PM 59.0 °F 53.6 °F 82% 29.92 in 10.0 mi SW 3.5 mph - N/A Rain Rain
12:55 PM 59.0 °F 53.6 °F 82% 29.92 in 7.0 mi SSW 8.1 mph - N/A Rain Rain
3:55 PM 60.8 °F 53.6 °F 77% 29.89 in 5.0 mi SW 9.2 mph - 0.02 in Rain Heavy Rain
4:15 PM 59.0 °F 53.6 °F 82% 29.89 in 3.0 mi WSW 6.9 mph - 0.07 in Rain Heavy Rain
4:35 PM 59.0 °F 53.6 °F 82% 29.89 in 5.0 mi West 5.8 mph - 0.15 in Rain Rain
4:55 PM 59.0 °F 53.6 °F 82% 29.88 in 5.0 mi WSW 5.8 mph - 0.18 in Rain Rain
5:15 PM 59.0 °F 53.6 °F 82% 29.88 in 10.0 mi West 5.8 mph - N/A Rain Light Rain
6:55 PM 55.4 °F 51.8 °F 88% 29.89 in 10.0 mi Calm Calm - N/A   Overcast